星链-4627 (STARLINK-4627 )

导读 | 星芒AI

STARLINK-4627 是 SpaceX Starlink 项目中的一颗低轨通信卫星,属于该星座的第 16 批次发射任务。该卫星于 2021 年 11 月 18 日由猎鹰 9 号火箭送入近地轨道,旨在为全球用户提供高速互联网服务。它运行在约 550 公里的高度,设计寿命为 5 至 7 年,具备先进的相控阵天线和激光通信能力,以提升网络效率和覆盖范围。Starlink 项目致力于构建全球卫星互联网,改善偏远地区的网络接入条件。

基本信息
目录编号:
53711
目录名称:
STARLINK-4627
国际标识:
2022-107M
轨道中心:
EARTH
卫星名称:
星链-4627
卫星全名:
星链-4627 (STARLINK-4627 )
卫星状态:
在轨 (已飞行1203 天)
发射日期:
2022-09-05 UTC
国别 :
美国 (US)
星等 :
--
轨道信息
数据来源 国际轨道数据
星历时间: 2025-12-21T10:36:45+0800
5小时前
查看轨道信息
半长轴: 6917.875km
偏心率: 0.0001546
轨道倾角: 53.217°
近地点辐角 89.814°
升交点赤经 241.688°
平近点角 270.303°
近地点: 538.668km
远地点: 540.808km
周期: 95.437分钟
每日圈数: 15.08842
详细信息
固有亮度:
5
最大亮度:
2.5
卫星平台:
Starlink v1.5
覆盖范围:
全球
运营商:
太空探索技术公司
运营商所在国:
美国
制造商(研发单位):
太空探索技术公司
制造商所在国:
美国
使用方式:
暂无
卫星简介
星链(Starlink)计划是由太空探索技术公司(SpaceX)提出的一个巨型低轨卫星互联网星座项目,计划在2019年至2024年间在太空搭建由约1.2万颗卫星组成的“星链”网络,其中1584颗将部署在地球上空550千米处的近地轨道,并从2020年开始工作。该卫星仍在工作。
2D轨道图
3D轨道图
轨道高度分析图
轨道倾角分析图
轨道综合分析图
查看轨道综合分析图